North Bend, OR

7:46 AM PDT on October 21, 2017 (GMT -0700)
North Bend Municipal

Weather History for KOTH - November, 2011

Change the Weather History Date:

Friday, November 4, 2011

  Actual Average Record
Temperature  
Mean Temperature 43 °F 51 °F  
Max Temperature 50 °F 57 °F 78 °F (1923)
Min Temperature 36 °F 44 °F 28 °F (1935)
Degree Days  
Heating Degree Days 22 14  
Month to date heating degree days 74 56  
Since 1 July heating degree days 920 1022  
Cooling Degree Days 0 0  
Month to date cooling degree days 0 0  
Year to date cooling degree days 1 2  
Moisture  
Dew Point 33 °F    
Average Humidity 74    
Maximum Humidity 82    
Minimum Humidity 56    
Precipitation  
Precipitation 0.00 in 0.29 in 3.27 in (1938)
Month to date precipitation 0.58 1.08  
Year to date precipitation 31.49 44.63  
Sea Level Pressure  
Sea Level Pressure 29.99 in    
Wind  
Wind Speed 7 mph (South)    
Max Wind Speed 12 mph    
Max Gust Speed -    
Visibility 8 miles    
Events      
T = Trace of Precipitation, MM = Missing Value Source: NWS Daily Summary

Daily Weather History Graph

Daily Weather History Graph

Search for Another Location

Airport or City:

Trip Planner

Search our weather history database for the weather conditions in past years. The results will help you decide how hot, cold, wet, or windy it might be!

Date:

Astronomy

Nov. 04, 2011 Rise Set
Actual Time 7:55 AM PDT 6:04 PM PDT
Civil Twilight 7:26 AM PDT 6:34 PM PDT
Nautical Twilight 6:52 AM PDT 7:08 PM PDT
Astronomical Twilight 6:18 AM PDT 7:41 PM PDT
Moon 3:07 PM PDT (11/4) 2:04 AM PDT (11/4)
Length of Visible Light 11h 08m
Length of Day
10h 08m
Waxing Gibbous, 70% of the Moon is Illuminated
Nov 4
Waxing Gibbous
Nov 10
Full
Nov 18
Last Quarter
Nov 24
New
Dec 2
First Quarter

Hourly Weather History & Observations

Time (PDT) Temp. Windchill Dew Point Humidity Pressure Visibility Wind Dir Wind Speed Gust Speed Precip Events Conditions
12:15 AM 37.4 °F 32.1 °F 30.2 °F 75% 29.91 in 10.0 mi SSE 6.9 mph - N/A   Clear
12:35 AM 37.4 °F 32.1 °F 30.2 °F 75% 29.92 in 10.0 mi SSE 6.9 mph - N/A   Scattered Clouds
12:55 AM 37.4 °F 32.1 °F 30.2 °F 75% 29.93 in 10.0 mi SE 6.9 mph - N/A   Partly Cloudy
1:15 AM 37.4 °F 32.1 °F 30.2 °F 75% 29.93 in 10.0 mi SE 6.9 mph - N/A   Clear
1:35 AM 37.4 °F 31.4 °F 32.0 °F 81% 29.93 in 10.0 mi SE 8.1 mph - N/A   Scattered Clouds
1:55 AM 37.4 °F 32.8 °F 32.0 °F 81% 29.93 in 10.0 mi SSE 5.8 mph - N/A   Overcast
2:15 AM 37.4 °F 32.8 °F 30.2 °F 75% 29.94 in 10.0 mi SSE 5.8 mph - N/A   Mostly Cloudy
2:35 AM 35.6 °F 29.9 °F 30.2 °F 81% 29.94 in 10.0 mi SSE 6.9 mph - N/A   Scattered Clouds
2:55 AM 35.6 °F 29.9 °F 30.2 °F 81% 29.94 in 4.0 mi SSE 6.9 mph - N/A   Mostly Cloudy
3:15 AM 37.4 °F 30.8 °F 32.0 °F 81% 29.94 in 3.0 mi SE 9.2 mph - N/A   Overcast
3:35 AM 37.4 °F 31.4 °F 32.0 °F 81% 29.94 in 1.0 mi SE 8.1 mph - N/A   Overcast
3:55 AM 37.4 °F 32.1 °F 32.0 °F 81% 29.94 in 0.5 mi SSE 6.9 mph - N/A   Overcast
4:15 AM 37.4 °F 32.1 °F 32.0 °F 81% 29.94 in 0.5 mi SSE 6.9 mph - N/A   Overcast
4:35 AM 37.4 °F 32.1 °F 32.0 °F 81% 29.95 in 0.5 mi SSE 6.9 mph - N/A   Overcast
4:55 AM 37.4 °F 31.4 °F 30.2 °F 75% 29.95 in 0.5 mi SSE 8.1 mph - N/A   Overcast
5:15 AM 37.4 °F 32.1 °F 30.2 °F 75% 29.96 in 0.5 mi SSE 6.9 mph - N/A   Overcast
5:35 AM 37.4 °F 30.8 °F 30.2 °F 75% 29.96 in 0.5 mi SSE 9.2 mph - N/A   Overcast
5:55 AM 37.4 °F 30.8 °F 30.2 °F 75% 29.97 in 0.5 mi SSE 9.2 mph - N/A   Overcast
6:15 AM 37.4 °F 31.4 °F 30.2 °F 75% 29.98 in 0.8 mi SE 8.1 mph - N/A   Overcast
6:35 AM 37.4 °F 30.8 °F 30.2 °F 75% 29.99 in 1.0 mi SSE 9.2 mph - N/A   Overcast
6:55 AM 37.4 °F 30.8 °F 32.0 °F 81% 29.99 in 4.0 mi SSE 9.2 mph - N/A   Overcast
7:15 AM 37.4 °F 30.8 °F 32.0 °F 81% 30.00 in 9.0 mi SSE 9.2 mph - N/A   Overcast
7:35 AM 37.4 °F 30.8 °F 32.0 °F 81% 30.00 in 10.0 mi SSE 9.2 mph - N/A   Mostly Cloudy
7:55 AM 37.4 °F 30.8 °F 32.0 °F 81% 30.00 in 10.0 mi SSE 9.2 mph - N/A   Mostly Cloudy
8:15 AM 37.4 °F 31.4 °F 30.2 °F 75% 30.01 in 10.0 mi SSE 8.1 mph - N/A   Overcast
8:35 AM 37.4 °F 31.4 °F 30.2 °F 75% 30.01 in 10.0 mi SE 8.1 mph - N/A   Scattered Clouds
8:55 AM 37.4 °F 29.8 °F 32.0 °F 81% 30.01 in 9.0 mi SSE 11.5 mph - N/A   Mostly Cloudy
9:15 AM 37.4 °F 29.3 °F 32.0 °F 81% 30.02 in 5.0 mi SE 12.7 mph - N/A   Overcast
9:35 AM 37.4 °F 30.3 °F 32.0 °F 81% 30.02 in 10.0 mi SSE 10.4 mph - N/A   Overcast
9:55 AM 39.2 °F 32.0 °F 33.8 °F 81% 30.02 in 10.0 mi SSE 11.5 mph - N/A   Overcast
10:15 AM 39.2 °F 33.0 °F 33.8 °F 81% 30.03 in 9.0 mi SSE 9.2 mph - N/A   Overcast
10:35 AM 39.2 °F 33.6 °F 33.8 °F 81% 30.03 in 10.0 mi SSE 8.1 mph - N/A   Overcast
10:55 AM 41.0 °F 35.8 °F 35.6 °F 81% 30.04 in 10.0 mi South 8.1 mph - N/A   Overcast
11:15 AM 42.8 °F 38.0 °F 35.6 °F 76% 30.04 in 8.0 mi SSE 8.1 mph - N/A   Mostly Cloudy
11:35 AM 42.8 °F 38.0 °F 35.6 °F 76% 30.04 in 10.0 mi SSE 8.1 mph - N/A   Mostly Cloudy
11:55 AM 42.8 °F 38.6 °F 37.4 °F 81% 30.04 in 10.0 mi South 6.9 mph - N/A   Scattered Clouds
12:15 PM 44.6 °F 42.2 °F 37.4 °F 76% 30.04 in 10.0 mi SSE 4.6 mph - N/A   Clear
12:35 PM 46.4 °F - 39.2 °F 76% 30.04 in 10.0 mi Calm Calm - N/A   Clear
12:55 PM 48.2 °F - 39.2 °F 71% 30.04 in 10.0 mi Calm Calm - N/A   Clear
1:15 PM 46.4 °F - 37.4 °F 71% 30.04 in 10.0 mi Calm Calm - N/A   Scattered Clouds
1:35 PM 48.2 °F - 37.4 °F 66% 30.03 in 10.0 mi WSW 4.6 mph - N/A   Scattered Clouds
1:55 PM 48.2 °F - 37.4 °F 66% 30.03 in 10.0 mi WSW 5.8 mph - N/A   Clear
2:15 PM 48.2 °F - 35.6 °F 62% 30.03 in 10.0 mi West 4.6 mph - N/A   Clear
2:35 PM 50.0 °F - 35.6 °F 58% 30.03 in 10.0 mi WNW 5.8 mph - N/A   Mostly Cloudy
2:55 PM 50.0 °F - 35.6 °F 58% 30.02 in 10.0 mi West 4.6 mph - N/A   Mostly Cloudy
3:15 PM 48.2 °F - 35.6 °F 62% 30.02 in 10.0 mi WNW 5.8 mph - N/A   Overcast
3:35 PM 48.2 °F - 35.6 °F 62% 30.02 in 10.0 mi WNW 6.9 mph - N/A   Overcast
3:55 PM 48.2 °F - 37.4 °F 66% 30.02 in 10.0 mi WNW 6.9 mph - N/A   Overcast
4:15 PM 48.2 °F - 35.6 °F 62% 30.02 in 10.0 mi West 6.9 mph - N/A   Scattered Clouds
4:35 PM 48.2 °F - 35.6 °F 62% 30.02 in 10.0 mi WSW 6.9 mph - N/A   Scattered Clouds
4:55 PM 48.2 °F - 35.6 °F 62% 30.02 in 10.0 mi SW 5.8 mph - N/A   Scattered Clouds
5:15 PM 48.2 °F - 35.6 °F 62% 30.03 in 10.0 mi WSW 6.9 mph - N/A   Scattered Clouds
5:35 PM 48.2 °F - 35.6 °F 62% 30.02 in 10.0 mi SW 4.6 mph - N/A   Mostly Cloudy
5:55 PM 46.4 °F 44.3 °F 35.6 °F 66% 30.02 in 10.0 mi SSW 4.6 mph - N/A   Scattered Clouds
6:15 PM 46.4 °F 44.3 °F 35.6 °F 66% 30.02 in 10.0 mi SSW 4.6 mph - N/A   Clear
6:35 PM 44.6 °F - 33.8 °F 66% 30.03 in 10.0 mi Calm Calm - N/A   Clear
6:55 PM 44.6 °F 43.1 °F 35.6 °F 71% 30.03 in 10.0 mi SE 3.5 mph - N/A   Clear
7:15 PM 42.8 °F 41.1 °F 33.8 °F 70% 30.03 in 10.0 mi SE 3.5 mph - N/A   Clear
7:35 PM 42.8 °F 38.6 °F 35.6 °F 76% 30.03 in 10.0 mi SE 6.9 mph - N/A   Clear
7:55 PM 42.8 °F 38.6 °F 35.6 °F 76% 30.03 in 10.0 mi SE 6.9 mph - N/A   Clear
8:15 PM 42.8 °F 38.0 °F 35.6 °F 76% 30.02 in 10.0 mi SE 8.1 mph - N/A   Clear
8:35 PM 42.8 °F 38.0 °F 35.6 °F 76% 30.02 in 10.0 mi SE 8.1 mph - N/A   Clear
8:55 PM 42.8 °F 38.0 °F 35.6 °F 76% 30.01 in 10.0 mi SE 8.1 mph - N/A   Clear
9:15 PM 42.8 °F 38.0 °F 35.6 °F 76% 30.01 in 10.0 mi SSE 8.1 mph - N/A   Scattered Clouds
9:35 PM 41.0 °F 35.8 °F 33.8 °F 76% 30.01 in 10.0 mi SSE 8.1 mph - N/A   Partly Cloudy
9:55 PM 41.0 °F 36.4 °F 35.6 °F 81% 30.01 in 10.0 mi SE 6.9 mph - N/A   Partly Cloudy
10:15 PM 42.8 °F 38.0 °F 35.6 °F 76% 30.01 in 10.0 mi SE 8.1 mph - N/A   Clear
10:35 PM 42.8 °F 38.6 °F 35.6 °F 76% 29.99 in 10.0 mi SE 6.9 mph - N/A   Partly Cloudy
10:55 PM 42.8 °F 38.0 °F 35.6 °F 76% 29.99 in 10.0 mi SSE 8.1 mph - N/A   Partly Cloudy
11:15 PM 42.8 °F 37.5 °F 35.6 °F 76% 29.98 in 10.0 mi SSE 9.2 mph - N/A   Mostly Cloudy
11:35 PM 41.0 °F 35.2 °F 33.8 °F 76% 29.98 in 10.0 mi SSE 9.2 mph - N/A   Mostly Cloudy
11:55 PM 41.0 °F 35.2 °F 33.8 °F 76% 29.98 in 10.0 mi SSE 9.2 mph - N/A   Mostly Cloudy